Terminal Aerodrome Forecast
Issued by NWS Columbia, SC

Home | Current Version | Previous Version | Text Only | Print | Product List | Glossary On
Versions: 1 2 3 4 5 6 7 8 9 10 11 12 13 14 15 16 17 18 19 20 21 22 23 24 25 26 27 28 29 30 31 32 33 34 35 36 37 38 39 40 41 42 43 44 45 46 47 48 49 50
018
FTAK31 PAJN 241740
TAFAGS
TAF
PAGS 241740Z 2418/2518 VRB04KT P6SM BKN030
     FM250100 12006KT P6SM FEW015 OVC030
     FM250700 VRB04KT 3SM -SN BR OVC015
     FM251500 30012KT P6SM VCSH BKN030 OVC050
      AMD LTD TO CLD VIS AND WIND=

USA.gov is the U.S. government's official web portal to all federal, state and local government web resources and services.